,,,PA_Meas_PMT16A,,PR_Meas_QMR101_102,,RH_Meas_QMH101,,SR_Meas_QMS101,,TA_Meas_QMH101,,GenWind,,GenWind,
date,time,status,PA,status,PR,status,RH,status,SR,status,TA,status,DirAvg,status,SpdAvg,
2009-04-26, 00:00:04,VALID,1001.42,VALID,0,VALID,93.5697,VALID,0,VALID,23.2932,VALID,35,VALID,0.553906,
2009-04-26, 00:01:04,VALID,1001.42,VALID,0,VALID,93.6002,VALID,0,VALID,23.3127,VALID,35,VALID,0.617578,
2009-04-26, 00:02:04,VALID,1001.41,VALID,0,VALID,93.5697,VALID,0,VALID,23.3323,VALID,35,VALID,0.691406,
2009-04-26, 00:03:04,VALID,1001.36,VALID,0,VALID,93.4934,VALID,0,VALID,23.3323,VALID,35,VALID,0.777734,
2009-04-26, 00:04:04,VALID,1001.37,VALID,0,VALID,93.4018,VALID,0,VALID,23.3713,VALID,35,VALID,0.863281,
2009-04-26, 00:05:04,VALID,1001.36,VALID,0,VALID,93.0127,VALID,0,VALID,23.3518,VALID,35,VALID,0.936719,
2009-04-26, 00:06:04,VALID,1001.38,VALID,0,VALID,92.7533,VALID,0,VALID,23.3323,VALID,35,VALID,1.05273,
2009-04-26, 00:07:04,VALID,1001.38,VALID,0,VALID,92.6007,VALID,0,VALID,23.2737,VALID,35,VALID,0.965625,
2009-04-26, 00:08:04,VALID,1001.36,VALID,0,VALID,92.7609,VALID,0,VALID,23.2134,VALID,35,VALID,1.00625,
2009-04-26, 00:09:04,VALID,1001.36,VALID,0,VALID,93.089,VALID,0,VALID,23.2152,VALID,35,VALID,1.0582,
2009-04-26, 00:10:04,VALID,1001.31,VALID,0,VALID,93.1882,VALID,0,VALID,23.1744,VALID,35,VALID,0.966406,
2009-04-26, 00:11:04,VALID,1001.33,VALID,0,VALID,93.3179,VALID,0,VALID,23.1762,VALID,35,VALID,0.94375,
2009-04-26, 00:12:04,VALID,1001.32,VALID,0,VALID,93.3484,VALID,0,VALID,23.1762,VALID,35,VALID,0.872656,
2009-04-26, 00:13:04,VALID,1001.31,VALID,0,VALID,93.6154,VALID,0,VALID,23.1762,VALID,36,VALID,0.998828,
2009-04-26, 00:14:04,VALID,1001.27,VALID,0,VALID,93.6307,VALID,0,VALID,23.1957,VALID,36,VALID,0.824609,
2009-04-26, 00:15:04,VALID,1001.27,VALID,0,VALID,93.6612,VALID,0,VALID,23.1939,VALID,36,VALID,0.874609,
2009-04-26, 00:16:04,VALID,1001.23,VALID,0,VALID,93.7451,VALID,0,VALID,23.2152,VALID,36,VALID,1.01836,
2009-04-26, 00:17:04,VALID,1001.24,VALID,0,VALID,93.6612,VALID,0,VALID,23.2542,VALID,36,VALID,1.19531,
2009-04-26, 00:18:04,VALID,1001.23,VALID,0,VALID,93.6917,VALID,0,VALID,23.2542,VALID,36,VALID,1.14375,
2009-04-26, 00:19:04,VALID,1001.24,VALID,0,VALID,93.3408,VALID,0,VALID,23.2134,VALID,38,VALID,1.10625,
2009-04-26, 00:20:04,VALID,1001.23,VALID,0,VALID,93.2645,VALID,0,VALID,23.2134,VALID,39,VALID,0.986328,
2009-04-26, 00:21:04,VALID,1001.2,VALID,0,VALID,93.2416,VALID,0,VALID,23.2152,VALID,45,VALID,0.8625,
2009-04-26, 00:22:04,VALID,1001.21,VALID,0,VALID,93.1195,VALID,0,VALID,23.1762,VALID,52,VALID,0.739062,
2009-04-26, 00:23:04,VALID,1001.21,VALID,0,VALID,93.1653,VALID,0,VALID,23.1549,VALID,56,VALID,0.709375,
2009-04-26, 00:24:04,VALID,1001.18,VALID,0,VALID,93.0966,VALID,0,VALID,23.1159,VALID,58,VALID,0.302734,
2009-04-26, 00:25:04,VALID,1001.15,VALID,0,VALID,93.2263,VALID,0,VALID,23.0981,VALID,62,VALID,0.376172,
2009-04-26, 00:26:04,VALID,1001.15,VALID,0,VALID,93.3637,VALID,0,VALID,23.0573,VALID,62,VALID,0.362891,
2009-04-26, 00:27:04,VALID,1001.14,VALID,0,VALID,93.5315,VALID,0,VALID,23.0786,VALID,62,VALID,0.353906,
2009-04-26, 00:28:04,VALID,1001.11,VALID,0,VALID,93.6002,VALID,0,VALID,23.0573,VALID,62,VALID,0.479297,
2009-04-26, 00:29:04,VALID,1001.07,VALID,0,VALID,93.6536,VALID,0,VALID,23.0786,VALID,60,VALID,0.616797,
2009-04-26, 00:30:04,VALID,1001.08,VALID,0,VALID,93.8443,VALID,0,VALID,23.0981,VALID,53,VALID,0.590625,
2009-04-26, 00:31:04,VALID,1001.03,VALID,0,VALID,93.8291,VALID,0,VALID,23.1176,VALID,50,VALID,0.769141,
2009-04-26, 00:32:04,VALID,1001,VALID,0,VALID,93.7985,VALID,0,VALID,23.1354,VALID,50,VALID,0.835547,
2009-04-26, 00:33:04,VALID,1001.03,VALID,0,VALID,93.7299,VALID,0,VALID,23.1957,VALID,50,VALID,0.752734,
2009-04-26, 00:34:04,VALID,1001.01,VALID,0,VALID,93.6307,VALID,0,VALID,23.1939,VALID,50,VALID,0.573438,
2009-04-26, 00:35:04,VALID,1001.02,VALID,0,VALID,93.6002,VALID,0,VALID,23.2347,VALID,50,VALID,0.302344,
2009-04-26, 00:36:04,VALID,1001.02,VALID,0,VALID,93.3026,VALID,0,VALID,23.2152,VALID,50,VALID,0.103906,
2009-04-26, 00:37:04,VALID,1001.06,VALID,0,VALID,93.2416,VALID,0,VALID,23.2347,VALID,50,VALID,0.219531,
2009-04-26, 00:38:04,VALID,1001.01,VALID,0,VALID,93.2874,VALID,0,VALID,23.2134,VALID,50,VALID,0.208984,
2009-04-26, 00:39:04,VALID,1001.06,VALID,0,VALID,93.2874,VALID,0,VALID,23.1939,VALID,50,VALID,0.227734,
2009-04-26, 00:40:04,VALID,1001.02,VALID,0,VALID,93.5086,VALID,0,VALID,23.2329,VALID,119,VALID,0.714844,
2009-04-26, 00:41:04,VALID,1001.02,VALID,0,VALID,93.7909,VALID,0,VALID,23.2737,VALID,120,VALID,0.772266,
2009-04-26, 00:42:04,VALID,1001.02,VALID,0,VALID,93.7833,VALID,0,VALID,23.2719,VALID,120,VALID,0.653125,
2009-04-26, 00:43:04,VALID,1001.01,VALID,0,VALID,93.4857,VALID,0,VALID,23.2524,VALID,109,VALID,0.491797,
2009-04-26, 00:44:04,VALID,1001,VALID,0,VALID,93.2187,VALID,0,VALID,23.2329,VALID,109,VALID,0.358203,
2009-04-26, 00:45:04,VALID,1001.01,VALID,0,VALID,93.1043,VALID,0,VALID,23.2542,VALID,109,VALID,0.326172,
2009-04-26, 00:46:04,VALID,1000.95,VALID,0,VALID,93.028,VALID,0,VALID,23.2347,VALID,109,VALID,0.046875,
2009-04-26, 00:47:04,VALID,1001,VALID,0,VALID,93.1271,VALID,0,VALID,23.2152,VALID,109,VALID,0.179688,
2009-04-26, 00:48:04,VALID,1000.99,VALID,0,VALID,93.2263,VALID,0,VALID,23.1762,VALID,109,VALID,0.201172,
2009-04-26, 00:49:04,VALID,1001.02,VALID,0,VALID,93.3331,VALID,0,VALID,23.1744,VALID,109,VALID,0.178516,
2009-04-26, 00:50:04,VALID,1001.06,VALID,0,VALID,93.4247,VALID,0,VALID,23.1762,VALID,109,VALID,0.414063,
2009-04-26, 00:51:04,VALID,1001.05,VALID,0,VALID,93.6078,VALID,0,VALID,23.1744,VALID,109,VALID,0.346875,
2009-04-26, 00:52:04,VALID,1001.04,VALID,0,VALID,93.5773,VALID,0,VALID,23.1744,VALID,109,VALID,0.275781,
2009-04-26, 00:53:04,VALID,1001.05,VALID,0,VALID,93.6383,VALID,0,VALID,23.1957,VALID,109,VALID,0.298047,
2009-04-26, 00:54:04,VALID,1001.08,VALID,0,VALID,93.7909,VALID,0,VALID,23.2152,VALID,109,VALID,0.235938,
2009-04-26, 00:55:04,VALID,1001.05,VALID,0,VALID,93.7604,VALID,0,VALID,23.2329,VALID,109,VALID,0.130078,
2009-04-26, 00:56:04,VALID,1001.08,VALID,0,VALID,93.562,VALID,0,VALID,23.2152,VALID,109,VALID,0.182422,
2009-04-26, 00:57:04,VALID,1001.04,VALID,0,VALID,93.4781,VALID,0,VALID,23.2152,VALID,109,VALID,0.401172,
2009-04-26, 00:58:04,VALID,1001.06,VALID,0,VALID,93.4171,VALID,0,VALID,23.1957,VALID,108,VALID,0.442578,
2009-04-26, 00:59:04,VALID,1001.04,VALID,0,VALID,93.1805,VALID,0,VALID,23.1371,VALID,44,VALID,0.625391,
2009-04-26, 01:00:04,VALID,1001.06,VALID,0,VALID,93.3942,VALID,0,VALID,23.1566,VALID,42,VALID,0.473437,
2009-04-26, 01:01:04,VALID,1001.06,VALID,0,VALID,93.3713,VALID,0,VALID,23.1176,VALID,42,VALID,0.579687,
2009-04-26, 01:02:04,VALID,1001.1,VALID,0,VALID,93.44,VALID,0,VALID,23.0769,VALID,42,VALID,0.367969,
2009-04-26, 01:03:04,VALID,1001.09,VALID,0,VALID,93.3713,VALID,0,VALID,23.0981,VALID,42,VALID,0.215234,
2009-04-26, 01:04:04,VALID,1001.09,VALID,0,VALID,93.3179,VALID,0,VALID,23.0201,VALID,42,VALID,0.366406,
2009-04-26, 01:05:04,VALID,1001.07,VALID,0,VALID,93.3713,VALID,0,VALID,22.9793,VALID,42,VALID,0.570703,
2009-04-26, 01:06:04,VALID,1001.05,VALID,0,VALID,93.3179,VALID,0,VALID,22.9403,VALID,31,VALID,0.559766,
2009-04-26, 01:07:04,VALID,1001.03,VALID,0,VALID,93.4323,VALID,0,VALID,22.9615,VALID,31,VALID,0.567578,
2009-04-26, 01:08:04,VALID,1001.03,VALID,0,VALID,93.7451,VALID,0,VALID,22.9615,VALID,31,VALID,0.589844,
2009-04-26, 01:09:04,VALID,1001.01,VALID,0,VALID,93.8214,VALID,0,VALID,22.9403,VALID,31,VALID,0.538281,
2009-04-26, 01:10:04,VALID,1001.04,VALID,0,VALID,93.7375,VALID,0,VALID,22.9225,VALID,31,VALID,0.492188,
2009-04-26, 01:11:04,VALID,1001.06,VALID,0,VALID,93.6841,VALID,0,VALID,22.864,VALID,31,VALID,0.432422,
2009-04-26, 01:12:04,VALID,1001.04,VALID,0,VALID,93.974,VALID,0,VALID,22.8835,VALID,31,VALID,0.661328,
2009-04-26, 01:13:04,VALID,1001.01,VALID,0,VALID,94.2716,VALID,0,VALID,22.942,VALID,31,VALID,0.660547,
2009-04-26, 01:14:04,VALID,1001,VALID,0,VALID,94.2792,VALID,0,VALID,22.9811,VALID,31,VALID,0.602734,
2009-04-26, 01:15:04,VALID,1001,VALID,0,VALID,94.2411,VALID,0,VALID,23.0006,VALID,31,VALID,0.669922,
2009-04-26, 01:16:04,VALID,1000.98,VALID,0,VALID,94.0961,VALID,0,VALID,23.0006,VALID,31,VALID,0.579687,
2009-04-26, 01:17:04,VALID,1000.99,VALID,0,VALID,93.6612,VALID,0,VALID,22.9615,VALID,31,VALID,0.519141,
2009-04-26, 01:18:04,VALID,1000.96,VALID,0,VALID,93.7146,VALID,0,VALID,22.9208,VALID,31,VALID,0.685938,
2009-04-26, 01:19:04,VALID,1000.95,VALID,0,VALID,93.9511,VALID,0,VALID,22.9615,VALID,31,VALID,0.825,
2009-04-26, 01:20:04,VALID,1000.94,VALID,0,VALID,93.9359,VALID,0,VALID,22.9811,VALID,31,VALID,0.981641,
2009-04-26, 01:21:04,VALID,1000.9,VALID,0,VALID,93.8977,VALID,0,VALID,22.9403,VALID,32,VALID,1.05469,
2009-04-26, 01:22:04,VALID,1000.87,VALID,0,VALID,93.7528,VALID,0,VALID,22.9208,VALID,32,VALID,0.881641,
2009-04-26, 01:23:04,VALID,1000.87,VALID,0,VALID,93.8214,VALID,0,VALID,22.9615,VALID,43,VALID,0.808594,
2009-04-26, 01:24:04,VALID,1000.88,VALID,0,VALID,93.7909,VALID,0,VALID,22.9208,VALID,43,VALID,0.766406,
2009-04-26, 01:25:04,VALID,1000.85,VALID,0,VALID,93.6917,VALID,0,VALID,22.903,VALID,43,VALID,0.480859,
2009-04-26, 01:26:04,VALID,1000.83,VALID,0,VALID,93.7146,VALID,0,VALID,22.8835,VALID,43,VALID,0.59375,
2009-04-26, 01:27:04,VALID,1000.77,VALID,0,VALID,93.8367,VALID,0,VALID,22.8818,VALID,43,VALID,0.671094,
2009-04-26, 01:28:04,VALID,1000.76,VALID,0,VALID,93.9969,VALID,0,VALID,22.8818,VALID,43,VALID,0.788672,
2009-04-26, 01:29:04,VALID,1000.77,VALID,0,VALID,94.0045,VALID,0,VALID,22.903,VALID,43,VALID,0.771484,
2009-04-26, 01:30:04,VALID,1000.72,VALID,0,VALID,94.2182,VALID,0,VALID,22.9225,VALID,43,VALID,0.802734,
2009-04-26, 01:31:04,VALID,1000.75,VALID,0,VALID,94.1495,VALID,0,VALID,22.942,VALID,43,VALID,0.839453,
2009-04-26, 01:32:04,VALID,1000.73,VALID,0,VALID,94.1877,VALID,0,VALID,22.9615,VALID,43,VALID,0.798828,
2009-04-26, 01:33:04,VALID,1000.74,VALID,0,VALID,94.0198,VALID,0,VALID,22.9403,VALID,43,VALID,0.73125,
2009-04-26, 01:34:04,VALID,1000.73,VALID,0,VALID,93.9969,VALID,0,VALID,22.9615,VALID,43,VALID,0.695703,
2009-04-26, 01:35:04,VALID,1000.72,VALID,0,VALID,93.9664,VALID,0,VALID,22.9615,VALID,43,VALID,0.594141,
2009-04-26, 01:36:04,VALID,1000.69,VALID,0,VALID,93.8825,VALID,0,VALID,22.942,VALID,43,VALID,0.555078,
2009-04-26, 01:37:04,VALID,1000.71,VALID,0,VALID,93.9588,VALID,0,VALID,22.942,VALID,43,VALID,0.570703,
2009-04-26, 01:38:04,VALID,1000.69,VALID,0,VALID,93.913,VALID,0,VALID,22.9208,VALID,43,VALID,0.477344,
2009-04-26, 01:39:04,VALID,1000.67,VALID,0,VALID,94.0808,VALID,0,VALID,22.9208,VALID,43,VALID,0.444141,
2009-04-26, 01:40:04,VALID,1000.65,VALID,0,VALID,94.0351,VALID,0,VALID,22.9013,VALID,43,VALID,0.323047,
2009-04-26, 01:41:04,VALID,1000.64,VALID,0,VALID,94.0198,VALID,0,VALID,22.9013,VALID,43,VALID,0.297266,
2009-04-26, 01:42:04,VALID,1000.62,VALID,0,VALID,94.0656,VALID,0,VALID,22.8818,VALID,43,VALID,0.299609,
2009-04-26, 01:43:04,VALID,1000.6,VALID,0,VALID,94.2334,VALID,0,VALID,22.9013,VALID,43,VALID,0.424219,
2009-04-26, 01:44:04,VALID,1000.59,VALID,0,VALID,94.3021,VALID,0,VALID,22.942,VALID,43,VALID,0.53125,
2009-04-26, 01:45:04,VALID,1000.6,VALID,0,VALID,94.2716,VALID,0,VALID,22.9225,VALID,42,VALID,0.584375,
2009-04-26, 01:46:04,VALID,1000.62,VALID,0,VALID,94.2945,VALID,0,VALID,22.9013,VALID,35,VALID,0.657031,
2009-04-26, 01:47:05,VALID,1000.62,VALID,0,VALID,94.18,VALID,0,VALID,22.903,VALID,33,VALID,0.689453,
2009-04-26, 01:48:05,VALID,1000.6,VALID,0,VALID,94.2411,VALID,0,VALID,22.9013,VALID,33,VALID,0.626172,
2009-04-26, 01:49:05,VALID,1000.59,VALID,0,VALID,94.2945,VALID,0,VALID,22.9013,VALID,33,VALID,0.558203,
2009-04-26, 01:50:05,VALID,1000.59,VALID,0,VALID,94.264,VALID,0,VALID,22.942,VALID,33,VALID,0.518359,
2009-04-26, 01:51:05,VALID,1000.53,VALID,0,VALID,94.3784,VALID,0,VALID,22.9208,VALID,33,VALID,0.635547,
2009-04-26, 01:52:05,VALID,1000.58,VALID,0,VALID,94.3555,VALID,0,VALID,22.9811,VALID,33,VALID,0.626172,
2009-04-26, 01:53:05,VALID,1000.56,VALID,0,VALID,94.2716,VALID,0,VALID,22.9811,VALID,33,VALID,0.621094,
2009-04-26, 01:54:05,VALID,1000.56,VALID,0,VALID,94.2487,VALID,0,VALID,22.9793,VALID,33,VALID,0.603125,
2009-04-26, 01:55:05,VALID,1000.59,VALID,0,VALID,93.9893,VALID,0,VALID,22.9793,VALID,33,VALID,0.651953,
2009-04-26, 01:56:05,VALID,1000.57,VALID,0,VALID,93.8748,VALID,0,VALID,22.9811,VALID,20,VALID,0.73125,
2009-04-26, 01:57:05,VALID,1000.56,VALID,0,VALID,94.0045,VALID,0,VALID,22.9598,VALID,20,VALID,0.841016,
2009-04-26, 01:58:05,VALID,1000.55,VALID,0,VALID,94.1877,VALID,0,VALID,22.9988,VALID,20,VALID,0.847656,
2009-04-26, 01:59:05,VALID,1000.55,VALID,0,VALID,94.0732,VALID,0,VALID,23.0201,VALID,20,VALID,0.770703,
2009-04-26, 02:00:05,VALID,1000.55,VALID,0,VALID,93.8901,VALID,0,VALID,22.9793,VALID,20,VALID,0.846094,
2009-04-26, 02:01:05,VALID,1000.54,VALID,0,VALID,93.8214,VALID,0,VALID,22.9793,VALID,20,VALID,0.795313,
2009-04-26, 02:02:05,VALID,1000.56,VALID,0,VALID,93.707,VALID,0,VALID,22.9793,VALID,20,VALID,0.803516,
2009-04-26, 02:03:05,VALID,1000.55,VALID,0,VALID,93.7146,VALID,0,VALID,22.9598,VALID,20,VALID,0.927734,
2009-04-26, 02:04:05,VALID,1000.54,VALID,0,VALID,93.7451,VALID,0,VALID,22.9598,VALID,20,VALID,1.01914,
2009-04-26, 02:05:05,VALID,1000.55,VALID,0,VALID,93.6307,VALID,0,VALID,22.942,VALID,20,VALID,0.977344,
2009-04-26, 02:06:05,VALID,1000.55,VALID,0,VALID,93.6002,VALID,0,VALID,22.9225,VALID,20,VALID,0.917188,
2009-04-26, 02:07:05,VALID,1000.51,VALID,0,VALID,93.7223,VALID,0,VALID,22.903,VALID,21,VALID,0.675781,
2009-04-26, 02:08:05,VALID,1000.49,VALID,0,VALID,93.7146,VALID,0,VALID,22.8623,VALID,39,VALID,0.744141,
2009-04-26, 02:09:05,VALID,1000.49,VALID,0,VALID,93.8748,VALID,0,VALID,22.8623,VALID,45,VALID,0.841016,
2009-04-26, 02:10:05,VALID,1000.48,VALID,0,VALID,94.058,VALID,0,VALID,22.903,VALID,45,VALID,0.719922,
2009-04-26, 02:11:05,VALID,1000.51,VALID,0,VALID,94.0656,VALID,0,VALID,22.903,VALID,45,VALID,0.596094,
2009-04-26, 02:12:05,VALID,1000.49,VALID,0,VALID,94.0503,VALID,0,VALID,22.9013,VALID,45,VALID,0.607422,
2009-04-26, 02:13:05,VALID,1000.47,VALID,0,VALID,94.0198,VALID,0,VALID,22.8818,VALID,45,VALID,0.684766,
2009-04-26, 02:14:05,VALID,1000.47,VALID,0,VALID,94.058,VALID,0,VALID,22.9208,VALID,45,VALID,0.672656,
2009-04-26, 02:15:05,VALID,1000.43,VALID,0,VALID,93.9359,VALID,0,VALID,22.9208,VALID,45,VALID,0.462891,
2009-04-26, 02:16:05,VALID,1000.39,VALID,0,VALID,93.7985,VALID,0,VALID,22.9013,VALID,45,VALID,0.473828,
2009-04-26, 02:17:05,VALID,1000.4,VALID,0,VALID,93.9206,VALID,0,VALID,22.9013,VALID,75,VALID,0.717969,
2009-04-26, 02:18:05,VALID,1000.38,VALID,0,VALID,94.0274,VALID,0.112286,VALID,22.9208,VALID,79,VALID,0.813672,
2009-04-26, 02:19:05,VALID,1000.42,VALID,0,VALID,94.0656,VALID,0,VALID,22.9208,VALID,81,VALID,0.804297,
2009-04-26, 02:20:05,VALID,1000.41,VALID,0,VALID,94.0274,VALID,0,VALID,22.9403,VALID,78,VALID,0.844141,
2009-04-26, 02:21:05,VALID,1000.45,VALID,0,VALID,93.9435,VALID,0,VALID,22.9208,VALID,72,VALID,0.661328,
2009-04-26, 02:22:05,VALID,1000.42,VALID,0,VALID,93.9054,VALID,0,VALID,22.9225,VALID,71,VALID,0.914844,
2009-04-26, 02:23:05,VALID,1000.4,VALID,0,VALID,93.913,VALID,0,VALID,22.942,VALID,71,VALID,0.851172,
2009-04-26, 02:24:05,VALID,1000.37,VALID,0,VALID,93.8977,VALID,0,VALID,22.9403,VALID,71,VALID,0.878125,
2009-04-26, 02:25:05,VALID,1000.35,VALID,0,VALID,93.8596,VALID,0,VALID,22.9403,VALID,71,VALID,0.894922,
2009-04-26, 02:26:05,VALID,1000.33,VALID,0,VALID,93.7375,VALID,0,VALID,22.9403,VALID,71,VALID,0.887109,
2009-04-26, 02:27:05,VALID,1000.3,VALID,0,VALID,93.6002,VALID,0,VALID,22.9225,VALID,71,VALID,0.798437,
2009-04-26, 02:28:05,VALID,1000.35,VALID,0,VALID,93.6994,VALID,0,VALID,22.8818,VALID,71,VALID,0.629687,
2009-04-26, 02:29:05,VALID,1000.36,VALID,0,VALID,93.7223,VALID,0,VALID,22.942,VALID,78,VALID,0.615625,
2009-04-26, 02:30:05,VALID,1000.34,VALID,0,VALID,93.8062,VALID,0,VALID,22.9208,VALID,78,VALID,0.526953,
2009-04-26, 02:31:05,VALID,1000.36,VALID,0,VALID,93.8138,VALID,0,VALID,22.9013,VALID,78,VALID,0.557031,
2009-04-26, 02:32:05,VALID,1000.34,VALID,0,VALID,93.8367,VALID,0,VALID,22.9403,VALID,78,VALID,0.680078,
2009-04-26, 02:33:05,VALID,1000.37,VALID,0,VALID,93.7146,VALID,0,VALID,22.9811,VALID,77,VALID,0.698047,
2009-04-26, 02:34:05,VALID,1000.39,VALID,0,VALID,93.707,VALID,0,VALID,22.9598,VALID,77,VALID,0.516797,
2009-04-26, 02:35:05,VALID,1000.41,VALID,0,VALID,93.5468,VALID,0,VALID,22.9598,VALID,77,VALID,0.377344,
2009-04-26, 02:36:05,VALID,1000.43,VALID,0,VALID,93.3789,VALID,0,VALID,22.9403,VALID,77,VALID,0.3375,
2009-04-26, 02:37:05,VALID,1000.36,VALID,0,VALID,93.4476,VALID,0,VALID,22.9208,VALID,77,VALID,0.598828,
2009-04-26, 02:38:05,VALID,1000.38,VALID,0,VALID,93.5315,VALID,0,VALID,22.942,VALID,77,VALID,0.547266,
2009-04-26, 02:39:05,VALID,1000.36,VALID,0,VALID,93.5239,VALID,0,VALID,22.9013,VALID,77,VALID,0.499219,
2009-04-26, 02:40:05,VALID,1000.33,VALID,0,VALID,93.5468,VALID,0,VALID,22.903,VALID,77,VALID,0.428125,
2009-04-26, 02:41:05,VALID,1000.35,VALID,0,VALID,93.5849,VALID,0,VALID,22.8818,VALID,77,VALID,0.339063,
2009-04-26, 02:42:05,VALID,1000.34,VALID,0,VALID,93.7451,VALID,0,VALID,22.8623,VALID,77,VALID,0.387891,
2009-04-26, 02:43:05,VALID,1000.3,VALID,0,VALID,93.8138,VALID,0,VALID,22.8623,VALID,77,VALID,0.519141,
2009-04-26, 02:44:05,VALID,1000.3,VALID,0,VALID,93.8596,VALID,0,VALID,22.8427,VALID,77,VALID,0.437891,
2009-04-26, 02:45:05,VALID,1000.3,VALID,0,VALID,94.0351,VALID,0,VALID,22.8623,VALID,77,VALID,0.464063,
2009-04-26, 02:46:05,VALID,1000.31,VALID,0,VALID,94.1648,VALID,0.112286,VALID,22.8818,VALID,77,VALID,0.458984,
2009-04-26, 02:47:05,VALID,1000.32,VALID,0,VALID,94.18,VALID,0,VALID,22.9013,VALID,77,VALID,0.442187,
2009-04-26, 02:48:05,VALID,1000.3,VALID,0,VALID,94.1266,VALID,0,VALID,22.9013,VALID,77,VALID,0.480469,
2009-04-26, 02:49:05,VALID,1000.33,VALID,0,VALID,94.0885,VALID,0,VALID,22.9208,VALID,77,VALID,0.501562,
2009-04-26, 02:50:05,VALID,1000.31,VALID,0,VALID,93.9893,VALID,0,VALID,22.942,VALID,77,VALID,0.451562,
2009-04-26, 02:51:05,VALID,1000.34,VALID,0,VALID,94.0961,VALID,0,VALID,22.9208,VALID,105,VALID,0.578906,
2009-04-26, 02:52:05,VALID,1000.32,VALID,0,VALID,94.3021,VALID,0,VALID,22.9793,VALID,105,VALID,0.4875,
2009-04-26, 02:53:05,VALID,1000.32,VALID,0,VALID,94.2716,VALID,0,VALID,23.0183,VALID,105,VALID,0.371094,
2009-04-26, 02:54:05,VALID,1000.35,VALID,0,VALID,94.2182,VALID,0,VALID,23.0183,VALID,105,VALID,0.191797,
2009-04-26, 02:55:05,VALID,1000.36,VALID,0,VALID,94.2105,VALID,0,VALID,23.0201,VALID,105,VALID,0.109375,
2009-04-26, 02:56:05,VALID,1000.4,VALID,0,VALID,94.2334,VALID,0,VALID,23.0396,VALID,105,VALID,0.180078,
2009-04-26, 02:57:05,VALID,1000.4,VALID,0,VALID,94.1953,VALID,0,VALID,23.0183,VALID,105,VALID,0.226172,
2009-04-26, 02:58:05,VALID,1000.41,VALID,0,VALID,93.9817,VALID,0,VALID,22.9988,VALID,105,VALID,0.35,
2009-04-26, 02:59:05,VALID,1000.43,VALID,0,VALID,94.0198,VALID,0,VALID,22.9811,VALID,105,VALID,0.432813,
2009-04-26, 03:00:05,VALID,1000.43,VALID,0,VALID,94.0656,VALID,0,VALID,23.0006,VALID,53,VALID,0.607031,
2009-04-26, 03:01:05,VALID,1000.43,VALID,0,VALID,94.1037,VALID,0,VALID,23.0006,VALID,49,VALID,0.609766,
2009-04-26, 03:02:05,VALID,1000.46,VALID,0,VALID,94.2487,VALID,0,VALID,22.9988,VALID,49,VALID,0.420312,
2009-04-26, 03:03:05,VALID,1000.43,VALID,0,VALID,94.2182,VALID,0.112286,VALID,23.0183,VALID,49,VALID,0.141797,
2009-04-26, 03:04:05,VALID,1000.44,VALID,0,VALID,94.0732,VALID,0,VALID,22.9988,VALID,49,VALID,0.16875,
2009-04-26, 03:05:05,VALID,1000.46,VALID,0,VALID,94.0427,VALID,0,VALID,23.0006,VALID,49,VALID,0,
2009-04-26, 03:06:05,VALID,1000.47,VALID,0,VALID,94.0732,VALID,0,VALID,22.9598,VALID,49,VALID,0.209766,
2009-04-26, 03:07:05,VALID,1000.47,VALID,0,VALID,94.0503,VALID,0,VALID,22.9403,VALID,49,VALID,0.0851562,
2009-04-26, 03:08:05,VALID,1000.42,VALID,0,VALID,94.0961,VALID,0,VALID,22.942,VALID,49,VALID,0.191406,
2009-04-26, 03:09:05,VALID,1000.44,VALID,0,VALID,94.2563,VALID,0,VALID,22.9598,VALID,49,VALID,0.228516,
2009-04-26, 03:10:05,VALID,1000.42,VALID,0,VALID,93.9969,VALID,0,VALID,22.942,VALID,49,VALID,0.305078,
2009-04-26, 03:11:05,VALID,1000.43,VALID,0,VALID,93.6841,VALID,0,VALID,22.8445,VALID,49,VALID,0.317969,
2009-04-26, 03:12:05,VALID,1000.44,VALID,0,VALID,93.5086,VALID,0,VALID,22.7664,VALID,49,VALID,0.446094,
2009-04-26, 03:13:05,VALID,1000.46,VALID,0,VALID,93.768,VALID,0,VALID,22.7257,VALID,37,VALID,0.61875,
2009-04-26, 03:14:05,VALID,1000.39,VALID,0,VALID,94.0808,VALID,0,VALID,22.7664,VALID,35,VALID,0.410547,
2009-04-26, 03:15:05,VALID,1000.43,VALID,0,VALID,94.2334,VALID,0,VALID,22.7664,VALID,35,VALID,0.205859,
2009-04-26, 03:16:05,VALID,1000.43,VALID,0,VALID,94.1419,VALID,0,VALID,22.7257,VALID,36,VALID,0.401563,
2009-04-26, 03:17:05,VALID,1000.41,VALID,0,VALID,94.0808,VALID,0,VALID,22.7079,VALID,36,VALID,0.458203,
2009-04-26, 03:18:05,VALID,1000.4,VALID,0,VALID,94.0351,VALID,0,VALID,22.7079,VALID,36,VALID,0.617969,
2009-04-26, 03:19:05,VALID,1000.38,VALID,0,VALID,93.9664,VALID,0,VALID,22.6689,VALID,36,VALID,0.719141,
2009-04-26, 03:20:05,VALID,1000.4,VALID,0,VALID,94.1114,VALID,0.112286,VALID,22.6494,VALID,35,VALID,0.781641,
2009-04-26, 03:21:05,VALID,1000.38,VALID,0,VALID,94.3937,VALID,0,VALID,22.6477,VALID,36,VALID,0.745703,
2009-04-26, 03:22:05,VALID,1000.41,VALID,0,VALID,94.5234,VALID,0,VALID,22.7274,VALID,36,VALID,0.669531,
2009-04-26, 03:23:05,VALID,1000.44,VALID,0,VALID,94.4318,VALID,0,VALID,22.7062,VALID,36,VALID,0.333594,
2009-04-26, 03:24:05,VALID,1000.42,VALID,0,VALID,94.3097,VALID,0,VALID,22.6672,VALID,36,VALID,0,
2009-04-26, 03:25:05,VALID,1000.42,VALID,0,VALID,94.1571,VALID,0,VALID,22.6477,VALID,36,VALID,0,
2009-04-26, 03:26:05,VALID,1000.46,VALID,0,VALID,94.2258,VALID,0,VALID,22.6282,VALID,36,VALID,0.321094,
2009-04-26, 03:27:05,VALID,1000.48,VALID,0,VALID,94.386,VALID,0,VALID,22.6477,VALID,35,VALID,0.517187,
2009-04-26, 03:28:05,VALID,1000.53,VALID,0,VALID,94.3937,VALID,0,VALID,22.6672,VALID,35,VALID,0.376563,
2009-04-26, 03:29:05,VALID,1000.56,VALID,0,VALID,94.386,VALID,0,VALID,22.6867,VALID,35,VALID,0.498047,
2009-04-26, 03:30:05,VALID,1000.57,VALID,0,VALID,94.4242,VALID,0,VALID,22.7079,VALID,35,VALID,0.638281,
2009-04-26, 03:31:05,VALID,1000.57,VALID,0,VALID,94.4165,VALID,0,VALID,22.7062,VALID,35,VALID,0.625,
2009-04-26, 03:32:05,VALID,1000.58,VALID,0,VALID,94.325,VALID,0,VALID,22.7079,VALID,35,VALID,0.677344,
2009-04-26, 03:33:05,VALID,1000.62,VALID,0,VALID,94.3937,VALID,0,VALID,22.7062,VALID,35,VALID,0.646484,
2009-04-26, 03:34:05,VALID,1000.57,VALID,0,VALID,94.2945,VALID,0,VALID,22.6867,VALID,19,VALID,0.6125,
2009-04-26, 03:35:05,VALID,1000.58,VALID,0,VALID,94.264,VALID,0,VALID,22.7062,VALID,19,VALID,0.603516,
2009-04-26, 03:36:05,VALID,1000.59,VALID,0,VALID,94.2945,VALID,0,VALID,22.6867,VALID,19,VALID,0.792969,
2009-04-26, 03:37:05,VALID,1000.59,VALID,0,VALID,94.4242,VALID,0,VALID,22.7257,VALID,19,VALID,0.791016,
2009-04-26, 03:38:05,VALID,1000.6,VALID,0,VALID,94.4242,VALID,0,VALID,22.7079,VALID,19,VALID,0.785156,
2009-04-26, 03:39:05,VALID,1000.56,VALID,0,VALID,94.4089,VALID,0,VALID,22.7469,VALID,19,VALID,0.724609,
2009-04-26, 03:40:05,VALID,1000.56,VALID,0,VALID,94.4242,VALID,0,VALID,22.7452,VALID,27,VALID,0.730078,
2009-04-26, 03:41:05,VALID,1000.53,VALID,0,VALID,94.3174,VALID,0,VALID,22.7469,VALID,27,VALID,0.771875,
2009-04-26, 03:42:05,VALID,1000.57,VALID,0,VALID,94.1877,VALID,0,VALID,22.7062,VALID,27,VALID,0.666406,
2009-04-26, 03:43:05,VALID,1000.57,VALID,0,VALID,94.0732,VALID,0,VALID,22.6867,VALID,27,VALID,0.584375,
2009-04-26, 03:44:05,VALID,1000.59,VALID,0,VALID,94.0351,VALID,0,VALID,22.6884,VALID,27,VALID,0.501172,
2009-04-26, 03:45:05,VALID,1000.62,VALID,0,VALID,93.9664,VALID,0,VALID,22.6689,VALID,27,VALID,0.0539063,
2009-04-26, 03:46:05,VALID,1000.62,VALID,0,VALID,94.0351,VALID,0,VALID,22.6282,VALID,27,VALID,0.0519531,